Moore, Oklahoma, United States
Lat: 35.34N, Lon: 97.49W
Wx Zone: OKZ029
Local Info
Past Weather Observations for Tuesday, April 22, 2014

NOTE: This archive is for the closest National Weather Service station to Moore. Information may differ from the station used for current weather conditions.

Time Weather Temperature Dewpoint Humidity Pressure Winds Precip Visibility
23:52
Partly Cloudy
57°F / 14°C 41°F / 5°C 55% 29.95 in
(1014 mb)
SSE 4.6 mph
(SSE 7 kph)
- 10SM
22:52
Partly Cloudy
57°F / 14°C 43°F / 6°C 59% 29.95 in
(1014 mb)
SE 5.8 mph
(SE 9 kph)
- 10SM
21:52
Partly Cloudy
61°F / 16°C 41°F / 5°C 48% 29.98 in
(1015 mb)
SE 4.6 mph
(SE 7 kph)
- 10SM
20:52
Partly Cloudy
61°F / 16°C 43°F / 6°C 52% 29.95 in
(1014 mb)
SE 8.1 mph
(SE 13 kph)
- 10SM
19:52
Partly Cloudy
64°F / 18°C 39°F / 4°C 40% 29.95 in
(1014 mb)
SE 6.9 mph
(SE 11 kph)
- 10SM
18:52
Partly Cloudy
72°F / 22°C 37°F / 3°C 29% 29.95 in
(1014 mb)
SE 9.2 mph
(SE 15 kph)
- 10SM
17:52
Partly Cloudy
79°F / 26°C 36°F / 2°C 21% 29.95 in
(1014 mb)
E 5.8 mph
(E 9 kph)
- 10SM
16:52
Partly Cloudy
81°F / 27°C 34°F / 1°C 18% 29.98 in
(1015 mb)
SE 4.6 mph
(SE 7 kph)
- 10SM
15:52
Partly Cloudy
81°F / 27°C 34°F / 1°C 18% 30.01 in
(1016 mb)
ENE 10.4 mph
(ENE 17 kph)
- 10SM
14:52
Partly Cloudy
81°F / 27°C 34°F / 1°C 18% 30.04 in
(1017 mb)
E 4.6 mph
(E 7 kph)
- 10SM
13:52
Clear
81°F / 27°C 34°F / 1°C 18% 30.06 in
(1018 mb)
N 6.9 mph
(N 11 kph)
- 10SM
12:52
Clear
79°F / 26°C 34°F / 1°C 20% 30.09 in
(1019 mb)
Variable 3.5 mph
(Variable 6 kph)
- 10SM
11:52
Clear
77°F / 25°C 36°F / 2°C 22% 30.09 in
(1019 mb)
N 10.4 mph
(N 17 kph)
- 10SM
10:52
Clear
73°F / 23°C 36°F / 2°C 25% 30.12 in
(1020 mb)
ENE 9.2 mph
(ENE 15 kph)
- 10SM
09:52
Clear
72°F / 22°C 39°F / 4°C 31% 30.12 in
(1020 mb)
ENE 12.7 mph
(ENE 20 kph)
- 10SM
08:52
Clear
66°F / 19°C 45°F / 7°C 46% 30.12 in
(1020 mb)
ENE 12.7 mph
(ENE 20 kph)
- 10SM
07:52
Clear
63°F / 17°C 45°F / 7°C 52% 30.12 in
(1020 mb)
NE 12.7 mph
(NE 20 kph)
- 10SM
06:52
Clear
55°F / 13°C 48°F / 9°C 77% 30.12 in
(1020 mb)
NNW 5.8 mph
(NNW 9 kph)
- 9SM
05:52
Clear
52°F / 11°C 46°F / 8°C 82% 30.12 in
(1020 mb)
NNW 10.4 mph
(NNW 17 kph)
- 10SM
04:52
Clear
54°F / 12°C 48°F / 9°C 82% 30.09 in
(1019 mb)
NNW 6.9 mph
(NNW 11 kph)
- 10SM
03:52
Clear
55°F / 13°C 50°F / 10°C 82% 30.09 in
(1019 mb)
NW 10.4 mph
(NW 17 kph)
- 10SM
02:52
Clear
57°F / 14°C 54°F / 12°C 88% 30.06 in
(1018 mb)
NNW 9.2 mph
(NNW 15 kph)
- 9SM
01:52
Clear
57°F / 14°C 54°F / 12°C 88% 30.06 in
(1018 mb)
NNW 6.9 mph
(NNW 11 kph)
- 10SM
00:52
Clear
59°F / 15°C 55°F / 13°C 88% 30.06 in
(1018 mb)
NW 8.1 mph
(NW 13 kph)
- 10SM
Time Weather Temperature Dewpoint Humidity Pressure Winds Precip Visibility


Weather for websites

WeatherForYou.com, LLC is not responsible for any damages or problems caused by this service. Current weather conditions are obtained from the closest station including government and personal stations which may have varying degrees of accuracy. Weather forecasts are derived from the NOAA NDFD. Like all things, this site belongs to Jesus Christ... He just trusts me to maintain it. If you have any questions or comments email webmaster@weatherforyou.com

Copyright © 2014, WeatherForYou.com LLC. All rights reserved.